Temperature
22 22 22 22 22 21 21 21 21 21 20 20 20 20 19 19 19 19 18 18 18 18 18 18 18 18 18 18 18 18 18 18 18 18 18 18 18 18 18 18 18 18 18
22 22 22 22 22 21 21 21 21 21 20 20 20 20 19 19 19 19 18 18 18 18 18 18 18 18 18 18 18 18 18 18 18 18 18 18 18 18 18 18 18 18 17
22 22 22 22 22 22 22 21 21 21 20 20 20 20 19 19 19 19 19 18 18 18 18 18 18 18 18 18 18 18 18 18 18 18 17 17 17 17 17 17 18 17 17
23 23 23 22 22 22 22 21 21 21 20 20 20 20 20 19 19 19 18 18 18 18 18 18 18 18 18 18 18 18 18 17 17 17 17 17 17 17 17 17 17 17 17
23 23 23 23 22 22 22 22 21 21 20 20 20 20 20 19 19 19 18 18 18 18 18 18 18 18 18 18 18 18 18 17 17 17 17 17 17 16 16 16 17 17 17
23 23 23 23 22 22 22 21 21 21 20 20 20 20 19 19 19 19 18 18 18 18 18 18 18 18 18 18 18 17 17 17 17 17 17 17 17 16 16 16 16 16 17
23 23 22 22 22 22 22 21 21 21 20 20 20 19 19 19 19 19 18 18 18 18 18 18 18 18 18 17 17 17 17 17 17 17 16 16 16 16 16 16 16 16 16
23 22 22 22 22 22 22 21 21 21 20 20 20 19 19 19 19 18 18 18 18 18 18 18 18 17 17 17 17 17 17 17 16 16 16 16 16 16 16 16 15 15 15
23 22 22 22 22 22 21 21 21 20 20 20 19 19 19 19 18 18 18 18 18 18 18 17 17 17 17 17 17 17 16 16 16 16 16 16 16 16 16 15 15 15 15
23 22 22 22 22 21 21 21 21 20 20 19 19 19 19 19 18 18 18 18 18 18 17 17 17 17 17 17 16 16 16 16 16 16 16 16 15 15 15 15 15 15 15
23 22 22 21 21 21 21 21 20 20 20 19 19 19 19 19 18 18 18 18 17 17 17 17 17 16 16 16 16 16 16 16 15 15 15 15 15 15 15 15 15 15 15
23 22 21 21 21 21 20 20 20 20 19 19 19 19 18 18 18 18 17 17 17 17 17 17 16 16 16 16 16 16 15 15 15 15 15 15 15 15 15 15 15 14 14
22 22 21 21 21 20 20 20 20 20 19 19 19 18 18 18 18 18 17 17 17 17 17 16 16 16 16 15 15 15 15 15 15 15 15 15 15 14 14 14 14 14 14
21 21 21 21 21 21 20 20 20 19 19 19 19 18 18 18 18 17 17 17 17 16 16 16 16 16 15 15 15 15 15 15 15 14 14 14 14 14 14 14 14 14 14
20 20 20 20 20 20 20 20 20 19 19 19 19 19 18 18 17 17 17 17 16 16 16 16 16 15 15 15 15 15 15 14 14 14 14 14 14 14 14 14 14 13 13
20 20 20 20 20 20 20 20 19 19 19 19 19 18 18 17 17 17 17 16 16 16 16 15 15 15 15 15 14 14 14 14 14 14 14 14 14 14 14 13 13 13 13
20 20 20 20 20 20 19 19 19 19 18 18 18 18 17 17 17 16 16 16 16 16 15 15 15 15 15 14 14 14 14 14 14 14 14 13 13 13 13 13 13 13 13
20 20 20 20 20 19 19 19 18 18 18 18 17 17 17 17 16 16 16 16 15 15 15 15 15 14 14 14 14 14 13 13 13 13 13 13 13 13 13 13 13 13 13
20 20 20 19 19 19 18 18 18 18 17 17 17 17 16 16 16 16 16 15 15 15 15 14 14 14 14 14 14 13 13 13 13 13 13 13 13 13 13 13 13 13 13
19 19 19 19 19 18 18 18 18 17 17 17 17 16 16 16 16 15 15 15 15 14 14 14 14 14 14 14 14 13 13 13 13 13 13 13 13 12 12 12 12 12 12
19 19 19 18 18 18 18 18 17 17 17 17 16 16 16 16 15 15 15 14 14 14 14 14 13 13 13 13 13 13 13 13 12 12 12 12 12 12 12 12 12 12 12
18 18 18 18 18 18 17 17 17 17 16 16 16 16 15 15 15 14 14 14 14 13 13 13 13 13 13 13 13 13 12 12 12 12 12 12 12 12 12 12 12 11 11
18 18 17 17 17 17 17 17 16 16 16 16 15 15 15 15 14 14 14 13 13 13 13 13 13 13 13 13 12 12 12 12 12 12 12 12 12 12 12 11 11 11 11
17 17 17 17 17 16 16 16 16 16 15 15 15 15 14 14 14 13 13 13 13 13 13 12 12 12 12 12 12 12 12 12 11 11 11 11 11 11 11 11 11 11 10
17 16 16 16 16 15 15 16 15 15 15 15 15 14 14 14 13 13 13 13 13 13 12 12 12 12 12 12 12 11 11 11 11 11 11 11 11 11 11 10 10 10 10
16 16 16 15 15 15 15 15 15 15 14 14 14 14 13 13 13 13 13 13 12 12 12 12 12 12 11 11 11 11 11 11 11 11 11 10 10 10 10 10 10 10 10
Wind_Speed
7 5 6 6 6 5 6 6 6 4 4 2 2 2 1 0 1 1 1 2 2 2 2 1 1 1 1 1 1 1 1 2 1 1 2 2 1 1 1 1 1 1 1
5 6 6 7 7 7 7 6 6 5 4 3 2 2 2 1 1 0 1 1 2 2 2 2 1 1 1 1 1 1 1 1 2 1 1 2 3 2 1 1 1 1 1
9 8 8 8 8 8 8 8 7 5 4 3 3 3 3 2 1 1 1 1 1 1 2 2 1 1 1 0 1 0 1 0 1 1 2 1 1 2 2 1 1 1 1
10 9 9 8 8 8 7 7 6 6 5 5 4 4 3 2 2 1 0 1 1 1 1 2 1 1 0 0 1 1 1 1 0 0 1 1 2 1 2 2 1 1 1
10 10 10 9 8 7 8 8 7 6 5 5 6 5 3 2 1 1 1 1 1 1 1 1 1 1 0 0 1 1 1 1 1 1 1 1 0 1 1 2 3 2 2
8 8 7 7 6 6 6 7 8 6 6 6 5 5 5 4 3 2 1 0 0 1 1 0 0 0 0 1 1 1 1 0 0 0 0 1 1 1 1 2 3 3 3
7 7 7 8 7 8 8 7 8 7 6 6 5 5 5 5 5 3 2 2 0 1 1 1 0 1 1 1 0 0 0 0 0 1 1 1 1 1 2 2 2 2 2
6 7 8 8 8 8 8 8 8 7 6 6 5 4 4 4 3 3 3 3 2 2 1 1 1 1 1 1 0 0 1 0 1 1 1 1 2 2 2 2 2 2 2
5 6 6 7 7 7 8 9 8 7 6 6 6 5 5 4 3 3 2 2 2 2 1 1 1 1 1 1 1 1 1 1 1 1 1 2 2 2 2 2 3 3 2
4 5 6 7 7 6 6 6 7 7 6 5 5 5 4 4 4 3 3 2 2 1 1 1 1 2 2 1 1 1 1 1 1 1 1 2 2 2 2 2 2 3 3
5 5 6 6 6 6 6 6 6 6 5 6 5 4 4 4 4 3 3 3 2 2 2 2 2 2 2 2 2 2 2 2 2 2 2 3 2 2 2 2 2 3 3
3 5 5 6 6 6 6 5 6 6 6 5 5 4 4 3 3 4 4 3 3 3 3 2 2 3 3 2 3 3 2 2 2 2 2 3 2 3 2 2 3 3 4
3 4 5 5 6 6 5 5 5 5 5 5 5 4 3 4 4 4 4 3 3 3 2 2 3 3 3 3 3 3 3 3 3 3 3 3 3 3 3 3 3 3 3
2 3 3 4 5 5 5 5 4 5 5 5 5 5 5 5 4 3 3 3 3 3 3 3 3 3 4 3 3 3 3 3 3 3 3 3 3 4 4 3 3 3 3
2 2 3 3 3 3 3 4 4 4 5 5 5 5 5 4 3 3 2 2 2 3 3 3 2 2 3 3 3 3 3 3 2 2 3 3 3 3 3 3 3 2 2
2 2 3 3 3 4 4 4 4 4 5 5 5 4 3 3 3 3 2 2 2 1 1 2 2 3 3 3 2 2 2 2 2 3 3 3 3 4 4 4 4 3 3
2 3 3 3 3 3 4 4 4 3 4 4 4 3 3 3 3 2 2 2 2 2 1 2 2 2 3 3 2 2 2 3 3 3 3 3 3 3 3 4 4 4 4
2 2 2 2 1 2 2 2 3 3 3 2 2 2 3 3 3 3 2 2 2 2 2 2 2 3 3 3 2 2 2 2 3 3 3 4 4 4 3 3 3 4 4
2 2 2 2 2 2 2 3 3 3 3 3 3 3 4 4 4 3 3 3 2 2 2 2 3 3 3 3 2 1 1 2 4 4 4 4 4 5 3 2 3 5 5
1 2 2 3 3 2 3 4 3 2 3 3 4 3 4 4 4 4 3 3 3 3 2 2 2 3 3 4 3 2 2 2 3 3 3 4 4 5 4 3 3 5 6
1 2 3 2 2 2 3 3 2 2 2 1 1 1 2 3 3 2 2 2 2 2 1 2 2 2 3 4 3 2 2 3 3 3 3 4 5 5 5 5 4 6 5
2 3 3 3 2 2 3 2 1 1 0 1 2 1 1 1 1 2 1 1 1 1 1 2 3 3 3 3 3 3 3 3 3 3 4 4 5 5 5 4 4 4 3
2 2 4 3 1 1 3 3 1 0 2 2 1 1 0 0 1 2 2 1 1 2 2 2 3 3 3 3 4 3 3 3 3 4 5 5 5 4 3 3 3 3 2
2 2 4 3 1 0 1 1 1 1 2 2 1 1 1 1 1 1 2 3 3 3 3 3 3 3 3 3 2 2 2 2 3 3 4 4 4 3 3 3 2 2 2
1 2 3 2 2 1 0 0 1 2 2 1 1 1 1 2 2 2 3 4 4 5 5 4 4 3 4 4 4 3 2 2 2 2 2 2 2 3 3 3 3 3 3
1 2 2 1 1 1 1 1 1 2 2 1 1 1 1 1 1 1 2 2 2 4 5 5 4 4 5 5 4 4 3 3 2 0 2 2 3 3 4 4 4 4 4
Wind_Direction
216 197 192 183 172 171 174 176 173 173 158 151 152 150 173 174 80 98 158 167 159 146 125 100 90 88 89 36 32 77 46 33 44 64 19 2 9 5 313 295 278 273 264
201 197 192 186 183 185 185 181 181 174 174 175 160 147 143 139 142 59 79 150 156 152 144 127 132 118 86 35 28 64 71 33 56 94 80 5 356 349 325 312 279 297 299
203 204 200 195 186 190 189 189 182 171 170 154 121 103 86 62 42 29 20 358 143 129 123 137 137 129 137 13 358 78 136 109 39 74 125 127 260 316 331 325 321 325 273
205 203 201 198 194 195 186 176 169 161 161 151 148 151 158 177 213 208 231 6 40 77 110 131 133 133 116 351 334 69 151 149 156 73 88 155 172 184 315 327 326 312 289
205 203 201 197 194 184 174 168 155 152 156 157 162 160 165 179 150 108 85 42 21 27 46 121 140 149 218 324 6 32 68 176 195 199 176 166 139 178 208 288 313 323 294
205 199 190 178 177 172 164 157 149 151 158 160 164 166 166 160 141 137 150 172 342 355 2 66 122 185 246 284 304 357 24 16 252 267 212 182 181 204 204 247 279 293 296
194 186 178 178 179 176 170 159 154 158 161 161 170 174 176 170 169 173 178 178 206 269 290 287 262 263 264 273 300 20 330 294 284 261 262 243 235 208 195 219 263 281 296
191 186 182 181 182 179 168 162 163 164 164 167 175 174 171 175 178 178 180 188 208 226 248 247 255 280 292 300 284 237 255 264 251 265 260 261 257 227 208 208 216 275 293
188 175 166 169 173 174 172 169 169 172 176 179 174 169 170 172 177 176 176 192 211 217 220 230 262 279 281 267 218 215 245 220 242 260 265 268 272 248 234 224 210 210 257
177 166 165 166 168 168 164 158 164 173 174 177 184 182 176 173 173 166 178 194 206 216 211 232 251 270 275 257 219 233 242 209 249 250 262 271 276 272 252 235 225 216 221
178 171 165 161 155 151 154 155 159 165 175 179 177 173 174 169 171 185 198 200 207 205 210 220 231 246 257 252 221 229 225 227 260 275 269 278 283 277 276 248 228 226 220
163 156 154 150 150 158 158 160 159 166 180 180 172 177 175 169 183 202 209 205 210 216 217 219 226 238 246 242 227 235 230 228 249 265 269 281 284 280 278 262 248 240 226
129 134 139 153 158 163 160 164 169 170 162 160 164 171 181 189 200 209 212 210 214 225 231 225 234 244 246 240 237 231 232 234 243 252 259 271 273 278 276 266 259 255 247
116 120 133 155 162 164 165 171 178 172 159 155 164 181 201 208 209 207 209 217 222 226 236 242 248 250 244 240 242 238 234 239 247 255 261 265 259 261 265 262 258 258 260
107 130 145 151 155 160 170 176 179 174 168 168 178 191 199 198 194 195 208 213 221 233 241 245 258 263 249 246 243 237 236 240 259 274 275 272 277 282 274 275 264 255 257
169 162 161 162 167 179 185 180 182 183 174 176 191 194 184 187 195 194 198 210 223 236 244 256 258 268 271 277 246 224 225 231 245 271 289 289 289 297 299 294 282 259 249
187 180 187 194 185 189 192 195 191 175 175 184 191 190 187 190 205 202 196 221 231 236 253 271 274 279 287 301 289 248 217 234 242 253 276 293 302 298 290 298 305 294 279
211 200 182 190 184 170 168 166 152 158 173 189 198 191 186 195 199 191 197 234 241 236 244 256 269 276 289 304 292 269 220 246 259 257 255 268 286 290 287 289 302 297 288
188 184 167 150 132 130 137 131 133 155 175 199 211 209 198 197 196 198 203 216 222 242 254 260 263 266 285 298 283 239 233 255 271 276 274 270 277 290 292 283 293 301 302
105 116 101 93 97 110 120 120 141 167 201 218 218 211 198 193 196 206 211 219 215 232 247 266 273 266 278 291 280 225 222 253 278 294 294 284 281 288 282 265 270 283 291
118 115 107 98 109 120 119 124 141 211 241 229 178 178 188 193 198 207 220 212 206 217 250 287 305 299 291 299 283 233 216 240 262 278 288 290 293 287 279 264 256 262 273
102 113 108 90 74 114 126 128 189 242 103 106 111 131 213 217 185 178 208 191 181 205 250 276 298 299 296 295 282 257 235 233 242 262 274 283 295 294 292 280 276 281 287
125 126 122 107 79 104 133 144 233 117 110 113 130 167 209 243 192 190 194 194 207 218 241 252 270 287 295 300 297 288 280 264 256 272 278 293 300 299 295 295 297 299 295
123 123 119 122 138 273 162 179 189 140 125 135 168 185 190 234 262 231 212 209 215 224 232 246 258 274 285 287 291 289 289 293 286 293 303 309 313 316 313 317 317 305 284
134 127 137 157 185 196 246 261 174 141 138 162 190 207 220 228 244 254 243 232 227 220 222 232 234 242 267 268 251 245 268 270 273 299 317 327 331 332 331 327 323 324 313
147 143 156 174 202 183 226 260 216 168 162 194 226 237 244 242 240 252 303 304 263 246 232 228 227 243 245 258 262 251 262 272 258 309 295 294 290 289 296 302 307 309 305
Height
1508 1510 1512 1513 1515 1517 1519 1520 1522 1523 1525 1526 1526 1527 1528 1529 1529 1530 1531 1531 1531 1531 1532 1531 1531 1531 1530 1530 1529 1528 1528 1527 1527 1527 1527 1527 1528 1528 1528 1529 1529 1529 1529
1506 1508 1510 1511 1513 1515 1517 1519 1521 1522 1524 1525 1526 1527 1528 1529 1529 1530 1530 1530 1531 1531 1531 1531 1531 1531 1530 1529 1529 1528 1528 1527 1527 1527 1527 1527 1528 1527 1527 1528 1528 1528 1528
1503 1505 1507 1509 1511 1513 1515 1517 1519 1521 1523 1524 1526 1527 1527 1528 1528 1529 1529 1530 1530 1530 1530 1530 1530 1530 1529 1529 1528 1528 1528 1527 1527 1527 1528 1527 1527 1527 1527 1526 1527 1527 1527
1500 1502 1504 1506 1508 1511 1513 1515 1517 1519 1521 1523 1525 1525 1526 1526 1527 1528 1529 1529 1530 1530 1530 1529 1529 1529 1529 1528 1528 1527 1527 1527 1527 1527 1527 1527 1527 1527 1526 1526 1526 1525 1525
1496 1498 1501 1503 1506 1508 1510 1512 1515 1518 1520 1521 1523 1524 1525 1526 1526 1527 1528 1528 1528 1529 1529 1529 1528 1528 1528 1527 1527 1526 1526 1526 1526 1526 1526 1525 1525 1525 1525 1524 1524 1524 1524
1493 1495 1498 1501 1503 1506 1508 1510 1513 1515 1518 1520 1521 1523 1523 1524 1525 1525 1526 1526 1527 1527 1528 1528 1527 1527 1526 1526 1526 1525 1525 1525 1525 1525 1524 1524 1524 1523 1523 1522 1522 1521 1521
1490 1492 1495 1497 1500 1503 1505 1508 1511 1513 1516 1518 1520 1521 1522 1523 1523 1524 1525 1525 1525 1526 1526 1526 1526 1525 1525 1525 1524 1524 1524 1524 1523 1523 1523 1523 1522 1522 1521 1521 1520 1519 1518
1487 1490 1492 1495 1498 1500 1503 1506 1509 1511 1513 1516 1517 1519 1520 1521 1522 1522 1523 1523 1524 1524 1525 1524 1524 1524 1524 1523 1523 1523 1522 1522 1522 1521 1521 1521 1520 1520 1519 1518 1518 1516 1516
1486 1488 1491 1493 1496 1499 1501 1504 1507 1509 1511 1513 1515 1516 1517 1519 1520 1521 1522 1522 1522 1523 1523 1522 1522 1522 1522 1521 1521 1520 1520 1520 1520 1519 1519 1518 1518 1517 1517 1516 1516 1516 1514
1485 1487 1489 1492 1494 1497 1500 1503 1505 1507 1509 1511 1513 1514 1515 1516 1518 1519 1519 1520 1520 1520 1520 1520 1520 1519 1519 1519 1519 1518 1518 1518 1517 1517 1516 1516 1515 1515 1514 1514 1513 1513 1512
1484 1486 1488 1491 1493 1496 1498 1500 1502 1505 1507 1509 1510 1511 1512 1514 1515 1516 1517 1517 1517 1517 1517 1517 1517 1516 1516 1516 1516 1515 1515 1515 1515 1514 1514 1513 1513 1512 1511 1511 1510 1510 1509
1483 1485 1487 1489 1491 1494 1496 1498 1500 1502 1504 1506 1508 1509 1510 1512 1513 1513 1514 1514 1514 1514 1514 1514 1514 1513 1513 1513 1513 1513 1512 1512 1512 1511 1511 1510 1510 1509 1508 1508 1507 1507 1506
1483 1484 1486 1489 1490 1492 1495 1497 1499 1500 1502 1504 1506 1508 1508 1509 1510 1511 1511 1512 1512 1512 1512 1511 1510 1510 1510 1510 1510 1510 1509 1509 1509 1508 1508 1507 1506 1506 1505 1505 1504 1504 1503
1483 1484 1485 1487 1489 1491 1493 1495 1498 1499 1500 1502 1503 1505 1507 1507 1508 1508 1508 1509 1509 1509 1509 1508 1507 1507 1507 1507 1507 1506 1506 1506 1505 1505 1504 1504 1503 1503 1502 1502 1501 1500 1500
1483 1484 1485 1487 1489 1491 1493 1494 1496 1497 1498 1500 1501 1502 1504 1505 1505 1505 1505 1506 1506 1506 1506 1505 1504 1504 1503 1503 1503 1503 1503 1503 1502 1502 1501 1501 1500 1500 1499 1499 1498 1497 1496
1483 1484 1485 1487 1488 1490 1491 1493 1494 1495 1496 1497 1498 1500 1501 1502 1502 1502 1502 1503 1503 1503 1503 1502 1502 1501 1500 1500 1500 1500 1499 1499 1499 1499 1498 1498 1498 1497 1496 1496 1495 1494 1493
1482 1483 1484 1485 1487 1489 1490 1492 1493 1494 1495 1495 1496 1498 1499 1499 1500 1500 1500 1500 1500 1500 1499 1499 1499 1498 1497 1497 1497 1497 1496 1497 1496 1496 1495 1495 1494 1494 1493 1492 1491 1490 1489
1482 1483 1484 1486 1486 1488 1490 1491 1492 1493 1493 1494 1495 1495 1496 1497 1497 1497 1497 1498 1497 1497 1497 1496 1496 1495 1495 1494 1494 1494 1494 1493 1493 1493 1492 1491 1491 1490 1490 1488 1487 1487 1486
1481 1483 1484 1485 1486 1487 1489 1489 1490 1491 1492 1492 1493 1493 1494 1494 1495 1494 1495 1495 1495 1495 1494 1493 1493 1492 1492 1491 1491 1491 1490 1490 1489 1489 1489 1488 1487 1487 1486 1485 1484 1483 1482
1481 1482 1483 1484 1485 1486 1487 1487 1487 1489 1489 1490 1491 1492 1492 1492 1492 1493 1493 1493 1493 1492 1492 1491 1490 1490 1489 1488 1488 1488 1487 1486 1486 1486 1485 1485 1484 1483 1482 1481 1480 1478 1477
1480 1481 1482 1482 1484 1485 1485 1486 1486 1487 1488 1488 1488 1489 1490 1490 1490 1490 1490 1490 1490 1490 1489 1489 1488 1487 1486 1486 1485 1485 1484 1483 1483 1482 1481 1481 1480 1479 1479 1478 1476 1475 1474
1479 1479 1480 1481 1483 1483 1484 1484 1485 1485 1486 1486 1486 1487 1488 1488 1488 1488 1488 1488 1487 1487 1486 1486 1485 1484 1483 1482 1482 1481 1481 1480 1480 1478 1478 1477 1476 1475 1474 1473 1472 1471 1470
1478 1479 1479 1480 1481 1482 1483 1482 1483 1484 1484 1484 1485 1485 1486 1486 1486 1485 1485 1485 1484 1484 1483 1483 1482 1481 1481 1480 1479 1478 1478 1477 1477 1476 1475 1474 1473 1472 1470 1469 1468 1467 1466
1477 1477 1478 1479 1480 1481 1481 1482 1482 1482 1483 1483 1483 1483 1484 1483 1483 1483 1483 1482 1482 1481 1480 1479 1479 1478 1477 1477 1476 1475 1475 1474 1473 1472 1471 1471 1469 1468 1467 1465 1464 1463 1462
1477 1477 1477 1478 1479 1479 1480 1480 1481 1481 1481 1481 1481 1481 1481 1481 1480 1480 1480 1479 1479 1478 1477 1477 1476 1475 1474 1474 1474 1473 1472 1471 1470 1469 1468 1467 1466 1464 1463 1462 1461 1459 1458
1476 1476 1477 1477 1478 1478 1478 1479 1479 1479 1479 1478 1478 1478 1478 1477 1476 1477 1476 1476 1476 1475 1475 1474 1474 1473 1473 1472 1471 1470 1469 1468 1467 1466 1464 1463 1462 1461 1459 1458 1457 1456 1455